User: anonymous   Login
Location: Lawrence Hall of Science
(37.8785°N, 122.2415°W)
Time: 10:21:32
(UTC-08:00)
Language:

ARGOS - Orbit

View from above orbital plane
View from above orbital plane
View from above satellite
View from above satellite

Ground track
Ground track

The orbit data is extracted from the following two-line orbital elements,

1 25634U 99008A   14352.17011079  .00000085  00000-0  61314-4 0  3386
2 25634 098.7390 057.4064 0009266 317.8342 095.0136 14.19198732819103
Epoch (UTC): 18 December 2014 04:04:57
Eccentricity: 0.0009266
inclination: 98.7390°
perigee height: 821 km
apogee height: 835 km
right ascension of ascending node: 57.4064°
argument of perigee: 317.8342°
revolutions per day: 14.19198732
mean anomaly at epoch: 95.0136°
orbit number at epoch: 81910

The dashed part of the orbit path shows where the satellite is in the earth's shadow,  

DLR